This is the latest recevied weather packets stored in our database for station/object DL1MMS-10. If no packets are shown the sender has not sent any weather packets the latest 10 day(s).
| Time | Temp. | Humidity | Pressure | Rain* | Wind** | Luminosity | Snow |
|---|---|---|---|---|---|---|---|
| 1777535452 | 7.22° C | 50% | 1024.6 hPa | 0 mm | - | - | - |
| 1777535152 | 7.22° C | 50% | 1024.8 hPa | 0 mm | - | - | - |
| 1777534852 | 6.67° C | 50% | 1024.6 hPa | 0 mm | - | - | - |
| 1777534551 | 6.67° C | 51% | 1024.7 hPa | 0 mm | - | - | - |
| 1777534251 | 6.67° C | 51% | 1024.6 hPa | 0 mm | - | - | - |
| 1777533951 | 6.11° C | 51% | 1024.5 hPa | 0 mm | - | - | - |
| 1777533650 | 6.11° C | 51% | 1024.5 hPa | 0 mm | - | - | - |
| 1777533350 | 6.11° C | 51% | 1024.7 hPa | 0 mm | - | - | - |
| 1777533050 | 5.56° C | 52% | 1024.6 hPa | 0 mm | - | - | - |
| 1777532750 | 5.56° C | 52% | 1024.8 hPa | 0 mm | - | - | - |
| 1777532449 | 5.56° C | 52% | 1024.5 hPa | 0 mm | - | - | - |
| 1777532149 | 5° C | 51% | 1024.6 hPa | 0 mm | - | - | - |
| 1777531849 | 5° C | 52% | 1024.5 hPa | 0 mm | - | - | - |
| 1777531549 | 5° C | 52% | 1024.5 hPa | 0 mm | - | - | - |
| 1777531248 | 4.44° C | 51% | 1024.5 hPa | 0 mm | - | - | - |
| 1777530948 | 4.44° C | 51% | 1024.5 hPa | 0 mm | - | - | - |
| 1777530648 | 4.44° C | 52% | 1024.6 hPa | 0 mm | - | - | - |
| 1777530348 | 4.44° C | 51% | 1024.6 hPa | 0 mm | - | - | - |
| 1777530047 | 3.89° C | 52% | 1024.5 hPa | 0 mm | - | - | - |
| 1777529747 | 3.89° C | 52% | 1024.4 hPa | 0 mm | - | - | - |
| 1777529447 | 3.89° C | 52% | 1024.5 hPa | 0 mm | - | - | - |
| 1777529146 | 3.89° C | 52% | 1024.3 hPa | 0 mm | - | - | - |
| 1777528846 | 3.89° C | 52% | 1024.4 hPa | 0 mm | - | - | - |
| 1777528546 | 3.33° C | 52% | 1024.6 hPa | 0 mm | - | - | - |
| 1777528246 | 3.33° C | 53% | 1024.4 hPa | 0 mm | - | - | - |
* Rain latest hour (hover to see other rain measurements)
** Current wind speed in m/s (hover to see current wind gust speed)